Powrót do katalogu

FENGYUN 1C DEB

AktywnySSO
NORAD 35244·DEBRIS·🇨🇳 China

Wystrzelony May 10, 1999 z Taiyuan Satellite Launch Center

Loading…

Następne Przeloty (najbliższe 24 godziny)

TLE

ŚwieżeSource: Space-Track

Epoka: Sep 14, 2026, 13:58 UTC

1 35244U 99025DRC 26257.58196164  .00000370  00000-0  24077-3 0  9998
2 35244  98.8121 296.1654 0072239 102.6813 258.2444 14.07082657697007

Śledź FENGYUN 1C DEB w czasie rzeczywistym z AllMySat

Download on the App Store